Flag for Germany Weather past 2 weeks in Mosbach, Baden-Württemberg, Germany

Now
63 °F

Overcast.


Feels Like: 63 °F
Forecast: 45 / 66 °F
Wind: 6 mph from West

Location: Oehringen

Current Time: Aug 23, 2014 at 2:21:08 PM

Latest Report: Aug 23, 2014 at 2:00 PM


Visibility: 28 mi

Pressure: 29.97 "Hg

Humidity: 59%

Dew point: 49 °F

Location of MosbachLocation

Historic Weather in Mosbach — Graph

°F

Mosbach temperature yesterday

Maximum temperature yesterday: 69 °F (at 6:00 PM)
Minimum temperature yesterday: 49 °F (at 7:00 AM)
Average temperature yesterday: 59 °F

Past Weeks' High & Low Weather Summary

 TemperatureHumidityPressure
High84 °F (Aug 10, 4:00 PM)96% (Aug 10, 6:00 AM)30.15 "Hg (Aug 10, 6:00 AM)
Low48 °F (Aug 20, 7:00 AM)34% (Aug 22, 6:00 PM)29.66 "Hg (Aug 13, 7:00 PM)
Average62 °F70%29.94 "Hg
* Reported Aug 8 1:00 PM — Aug 23 1:00 PM, Mosbach, Weather by CustomWeather, © 2014

Note: Actual official high and low records may vary slightly from our data, if they occured in-between our weather recording intervals... More about our weather records

Advertising

Mosbach weather history for previous 24 hours

 ConditionsComfort  
Time TempWeatherWind HumidityBarometerVisibility
1:00 PM
Aug 23
63 °FOvercast.7 mph60%29.98 "Hg25 mi
12:00 PM64 °FOvercast.7 mph55%29.97 "Hg18 mi
11:00 AM63 °FPartly sunny.6 mph61%29.97 "Hg25 mi
10:00 AM60 °FPassing clouds.5 mph63%29.98 "Hg37 mi
9:00 AM59 °FOvercast.3 mph68%29.98 "Hg43 mi
8:00 AM56 °FOvercast.2 mph72%29.97 "Hg31 mi
7:00 AM56 °FOvercast.1 mph72%29.97 "Hg34 mi
6:00 AM55 °FOvercast.1 mph74%29.96 "Hg28 mi
5:00 AM55 °FOvercast.1 mph74%29.96 "Hg28 mi
4:00 AM55 °FOvercast.1 mph73%29.97 "Hg28 mi
3:00 AM55 °FOvercast.2 mph71%29.97 "Hg31 mi
2:00 AM54 °FOvercast.2 mph74%29.97 "Hg28 mi
1:00 AM54 °FClear.2 mph72%29.97 "Hg37 mi
12:00 AM55 °FClear.2 mph73%29.98 "Hg31 mi
11:00 PM
Aug 22
56 °FPassing clouds.2 mph70%29.98 "Hg34 mi
10:00 PM59 °FClear.1 mph66%29.97 "Hg34 mi
9:00 PM64 °FOvercast.1 mph47%29.95 "Hg43 mi
8:00 PM66 °FOvercast.2 mph42%29.94 "Hg43 mi
7:00 PM67 °FPassing clouds.6 mph39%29.94 "Hg43 mi
6:00 PM69 °FPassing clouds.5 mph34%29.93 "Hg43 mi
5:00 PM68 °FPassing clouds.5 mph35%29.95 "Hg34 mi
4:00 PM67 °FOvercast.5 mph45%29.96 "Hg37 mi
3:00 PM68 °FOvercast.6 mph44%29.96 "Hg28 mi
2:00 PM65 °FOvercast.5 mph45%29.98 "Hg43 mi
Weather by CustomWeather, © 2014

See weather overviewHow to use our weather pages